SL-16 DEB, 39886

Orbit data source: Space-Track

SL-16 DEB, 39886 is space debris in LEO originally from a launch on Fri, 26 Mar 1993 UTC launched from the Tyuratam Missile And Space Complex (TTMTR). Debris objects in space refer to the collection of defunct objects orbiting the Earth. Examples of debris include non-operational satellites, rocket bodies, and fragments generated from explosions, collisions, or faulty payload assembly.

Loading next visibility...
Identifier
39886, 1993-016BL
Orbit
LEO
Country
Flag of CISCIS
Related business
Manufacturer
Unknown
Mission
Spacecraft
Bus & Motor
Unknown
Mass
Unknown
Launch date (UTC)
1993-03-26 (33 years ago)
Launch vehicle
Unknown
Launch site
Tyuratam Missile And Space Complex (TTMTR)
Object type
Payload
Rocket body
Debris
Shape & HBR
Unknown shape, 0.1 m
Radar Cross Section
Small (<0.1 m²)

Expand to show TLE details & history
Last TLE update: 4 days ago

TLE from 4 days ago
0 SL-16 DEB
1 39886U 93016BL  25292.28606615  .00010072  00000-0  14370-2 0  9994
2 39886  71.0071 148.5960 0050413 258.4103 101.1390 14.76055638606700
Epoch: 2025-10-19T06:51Z
TLE epoch observation values (Epoch: 2025-10-19T06:51:56.115Z)
Latitude
-0.00004°
Longitude
17.60726°
Altitude
651.281 km
Speed
7.529 km/s
True Right ascension
09h 54m 23s
True Declination
0° 00' 00"
Sunlit
Object was in daylight at epoch
Visualization orbit readout
Latitude
Unknown
Longitude
Unknown
Altitude
Unknown
Speed
Unknown
Apparent Right ascension
Unknown
Apparent Declination
Unknown
Sunlit
N/A
Visualization observer readout
Local Sidereal Time
17:40:48
Azimuth
Unknown
Elevation
Unknown
Doppler factor
Unknown
Orbital elements
Apogee altitude
675.046 km
Perigee altitude
604.288 km
Semi-major axis
7,017.804 km
Eccentricity
0.00504
Inclination
71.0071°
RAAN
148.596°
Arg. of periapsis
258.4103°
True anomaly
101.70511°
Mean anomaly
101.139°
Eccentric anomaly
101.42212°
Mean motion
3.69183 °/min
Orbital period
97.51 mins
BSTAR
0.001437
Loading maneuver chart data...
Computing Atmospheric mass density...
Loading historical data...
Loading historical data...
Loading historical data...
Loading historical data...
Loading historical data...
Loading historical data...
Loading historical data...

Documentation

Showing up to 5 results
|